• In Latvia
  • List of Countries
  • For 7 days
  • Water Temperature
  • Satellite Maps
  • Weather Map
  • Weather Widgets
  • user-avatar
    Login

    Hourly Weather Debalcevo

    Today, 24 June, Sunday

    Time Temperature Precipitation Wind Pressure Humidity
    00:00 +23°C° 0.2 mm 2 mps 728 mmHg 74%
    01:00 +23°C° 0.8 mm 2 mps 728 mmHg 78%
    02:00 +21°C° 0.8 mm 2 mps 728 mmHg 82%
    03:00 +21°C° 0.8 mm 2 mps 728 mmHg 86%
    04:00 +20°C° 0.7 mm 3 mps 728 mmHg 86%
    05:00 +20°C° 0.7 mm 3 mps 729 mmHg 87%
    06:00 +20°C° 0.7 mm 4 mps 729 mmHg 88%
    07:00 +20°C° 1.4 mm 4 mps 729 mmHg 86%
    08:00 +21°C° 1.4 mm 5 mps 729 mmHg 85%
    09:00 +21°C° 1.4 mm 5 mps 730 mmHg 83%
    10:00 +21°C° 0.8 mm 5 mps 730 mmHg 83%
    11:00 +20°C° 0.8 mm 5 mps 731 mmHg 83%
    12:00 +20°C° 0.8 mm 5 mps 731 mmHg 82%
    13:00 +21°C° 0 mm 5 mps 731 mmHg 77%
    14:00 +22°C° 0 mm 5 mps 732 mmHg 72%
    15:00 +22°C° 0 mm 5 mps 732 mmHg 66%
    16:00 +22°C° 0 mm 4 mps 732 mmHg 65%
    17:00 +22°C° 0 mm 4 mps 733 mmHg 64%
    18:00 +22°C° 0 mm 4 mps 733 mmHg 62%
    19:00 +20°C° 0 mm 3 mps 733 mmHg 66%
    20:00 +19°C° 0 mm 3 mps 733 mmHg 69%
    21:00 +18°C° 0 mm 2 mps 734 mmHg 73%
    22:00 +17°C° 0 mm 2 mps 734 mmHg 75%
    23:00 +16°C° 0 mm 2 mps 734 mmHg 77%

    Tomorrow, 25 June, Monday

    Time Temperature Precipitation Wind Pressure Humidity
    00:00 +15°C° 0 mm 2 mps 735 mmHg 79%
    01:00 +15°C° 0 mm 2 mps 735 mmHg 81%
    02:00 +14°C° 0 mm 2 mps 735 mmHg 83%
    03:00 +14°C° 0 mm 2 mps 735 mmHg 85%
    04:00 +14°C° 0 mm 2 mps 735 mmHg 84%
    05:00 +15°C° 0 mm 2 mps 735 mmHg 82%
    06:00 +15°C° 0 mm 2 mps 736 mmHg 81%
    07:00 +17°C° 0 mm 2 mps 736 mmHg 73%
    08:00 +18°C° 0 mm 2 mps 736 mmHg 66%
    09:00 +20°C° 0 mm 3 mps 736 mmHg 58%
    10:00 +21°C° 0 mm 3 mps 737 mmHg 54%
    11:00 +22°C° 0 mm 3 mps 737 mmHg 49%
    12:00 +24°C° 0 mm 3 mps 737 mmHg 45%
    13:00 +24°C° 0 mm 3 mps 737 mmHg 43%
    14:00 +25°C° 0 mm 3 mps 737 mmHg 42%
    15:00 +25°C° 0 mm 3 mps 736 mmHg 41%
    16:00 +25°C° 0 mm 3 mps 736 mmHg 43%
    17:00 +25°C° 0 mm 3 mps 736 mmHg 46%
    18:00 +24°C° 0 mm 3 mps 736 mmHg 48%
    19:00 +22°C° 0 mm 3 mps 736 mmHg 52%
    20:00 +21°C° 0 mm 3 mps 737 mmHg 55%
    21:00 +19°C° 0 mm 3 mps 737 mmHg 59%
    22:00 +19°C° 0 mm 3 mps 737 mmHg 62%
    23:00 +18°C° 0 mm 3 mps 737 mmHg 65%

    Day after tomorrow, 26 June, Tuesday

    Time Temperature Precipitation Wind Pressure Humidity
    00:00 +17°C° 0 mm 3 mps 736 mmHg 67%
    01:00 +17°C° 0 mm 3 mps 736 mmHg 69%
    02:00 +15°C° 0 mm 4 mps 736 mmHg 71%
    03:00 +15°C° 0 mm 4 mps 736 mmHg 72%
    04:00 +15°C° 0 mm 4 mps 736 mmHg 72%
    05:00 +15°C° 0 mm 4 mps 736 mmHg 72%
    06:00 +17°C° 0 mm 4 mps 736 mmHg 72%
    07:00 +17°C° 0 mm 5 mps 736 mmHg 69%
    08:00 +20°C° 0 mm 5 mps 736 mmHg 65%
    09:00 +22°C° 0 mm 5 mps 736 mmHg 61%
    10:00 +23°C° 0 mm 5 mps 736 mmHg 59%
    11:00 +26°C° 0 mm 5 mps 736 mmHg 56%
    12:00 +27°C° 0 mm 5 mps 736 mmHg 53%
    13:00 +28°C° 0 mm 5 mps 735 mmHg 53%
    14:00 +29°C° 0 mm 6 mps 735 mmHg 52%
    15:00 +29°C° 0 mm 6 mps 735 mmHg 51%
    16:00 +29°C° 0 mm 6 mps 735 mmHg 53%
    17:00 +28°C° 0 mm 6 mps 735 mmHg 55%
    18:00 +28°C° 0 mm 6 mps 734 mmHg 57%
    19:00 +27°C° 0.1 mm 6 mps 734 mmHg 61%
    20:00 +25°C° 0.1 mm 5 mps 734 mmHg 66%
    21:00 +23°C° 0.1 mm 5 mps 734 mmHg 71%
    22:00 +22°C° 0.2 mm 5 mps 734 mmHg 73%
    23:00 +22°C° 0.2 mm 5 mps 733 mmHg 75%

    27 June, Wednesday

    Time Temperature Precipitation Wind Pressure Humidity
    00:00 +21°C° 0.2 mm 5 mps 733 mmHg 77%
    01:00 +21°C° 0.1 mm 5 mps 733 mmHg 78%
    02:00 +21°C° 0.1 mm 5 mps 733 mmHg 79%
    03:00 +21°C° 0.1 mm 5 mps 732 mmHg 80%
    04:00 +21°C° 0 mm 4 mps 732 mmHg 79%
    05:00 +22°C° 0 mm 4 mps 732 mmHg 78%
    06:00 +22°C° 0 mm 4 mps 732 mmHg 77%
    07:00 +25°C° 0 mm 4 mps 732 mmHg 69%
    08:00 +26°C° 0 mm 4 mps 732 mmHg 61%
    09:00 +28°C° 0 mm 5 mps 733 mmHg 53%
    10:00 +30°C° 0 mm 5 mps 733 mmHg 48%
    11:00 +33°C° 0 mm 6 mps 733 mmHg 42%
    12:00 +35°C° 0 mm 7 mps 733 mmHg 37%
    13:00 +35°C° 0 mm 7 mps 733 mmHg 35%
    14:00 +36°C° 0 mm 7 mps 732 mmHg 34%
    15:00 +36°C° 0 mm 7 mps 732 mmHg 32%
    16:00 +36°C° 0 mm 6 mps 732 mmHg 35%
    17:00 +36°C° 0 mm 5 mps 732 mmHg 37%
    18:00 +35°C° 0 mm 4 mps 731 mmHg 40%
    19:00 +33°C° 0 mm 4 mps 731 mmHg 44%
    20:00 +32°C° 0 mm 5 mps 731 mmHg 48%
    21:00 +29°C° 0 mm 5 mps 731 mmHg 52%
    22:00 +28°C° 0 mm 5 mps 731 mmHg 53%
    23:00 +28°C° 0 mm 5 mps 731 mmHg 55%

    28 June, Thursday

    Time Temperature Precipitation Wind Pressure Humidity
    00:00 +27°C° 0 mm 6 mps 731 mmHg 56%
    01:00 +27°C° 0 mm 5 mps 731 mmHg 56%
    02:00 +26°C° 0 mm 5 mps 731 mmHg 56%
    03:00 +26°C° 0 mm 5 mps 731 mmHg 57%
    04:00 +25°C° 0 mm 4 mps 731 mmHg 58%
    05:00 +25°C° 0 mm 4 mps 731 mmHg 58%
    06:00 +25°C° 0 mm 4 mps 731 mmHg 59%
    07:00 +27°C° 0 mm 5 mps 731 mmHg 53%
    08:00 +29°C° 0 mm 5 mps 732 mmHg 46%
    09:00 +32°C° 0 mm 6 mps 732 mmHg 39%
    10:00 +34°C° 0 mm 6 mps 732 mmHg 35%
    11:00 +35°C° 0 mm 6 mps 732 mmHg 31%
    12:00 +38°C° 0 mm 7 mps 732 mmHg 27%
    13:00 +38°C° 0 mm 6 mps 732 mmHg 26%
    14:00 +39°C° 0 mm 6 mps 732 mmHg 25%
    15:00 +39°C° 0 mm 6 mps 732 mmHg 24%
    16:00 +39°C° 0 mm 5 mps 732 mmHg 26%
    17:00 +38°C° 0 mm 4 mps 731 mmHg 29%
    18:00 +37°C° 0 mm 3 mps 731 mmHg 32%
    19:00 +35°C° 0 mm 3 mps 731 mmHg 34%
    20:00 +33°C° 0 mm 3 mps 731 mmHg 37%
    21:00 +30°C° 0 mm 3 mps 731 mmHg 40%
    22:00 +29°C° 0 mm 3 mps 731 mmHg 41%
    23:00 +28°C° 0 mm 3 mps 731 mmHg 42%

    29 June, Friday

    Time Temperature Precipitation Wind Pressure Humidity
    00:00 +27°C° 0 mm 3 mps 730 mmHg 43%
    01:00 +27°C° 0 mm 3 mps 730 mmHg 43%
    02:00 +26°C° 0 mm 3 mps 730 mmHg 43%
    03:00 +26°C° 0 mm 3 mps 730 mmHg 43%
    04:00 +26°C° 0.1 mm 3 mps 730 mmHg 45%
    05:00 +25°C° 0.1 mm 3 mps 730 mmHg 47%
    06:00 +25°C° 0.1 mm 4 mps 730 mmHg 50%
    07:00 +27°C° 0 mm 4 mps 730 mmHg 45%
    08:00 +29°C° 0 mm 5 mps 730 mmHg 41%
    09:00 +32°C° 0 mm 6 mps 731 mmHg 37%
    10:00 +34°C° 0 mm 6 mps 731 mmHg 34%
    11:00 +35°C° 0 mm 7 mps 730 mmHg 30%
    12:00 +38°C° 0 mm 7 mps 730 mmHg 27%
    13:00 +38°C° 0 mm 7 mps 730 mmHg 26%
    14:00 +39°C° 0 mm 7 mps 730 mmHg 24%
    15:00 +40°C° 0 mm 7 mps 729 mmHg 23%
    16:00 +40°C° 0 mm 5 mps 729 mmHg 25%
    17:00 +38°C° 0 mm 4 mps 729 mmHg 27%
    18:00 +38°C° 0 mm 3 mps 729 mmHg 30%
    19:00 +36°C° 0 mm 3 mps 728 mmHg 33%
    20:00 +34°C° 0 mm 3 mps 728 mmHg 36%
    21:00 +30°C° 0 mm 3 mps 728 mmHg 39%
    22:00 +29°C° 0.4 mm 3 mps 728 mmHg 44%
    23:00 +28°C° 0.4 mm 3 mps 728 mmHg 49%
    Show more